KMADALTO1 Weather Reports


time (UTC)temp
F
wind
direction
speed
knots
gust
knots
rain 1hr
in
rain 24hr
in
rain mn
in
humidity
%
barometer
mb
20260504141051 57 281 5.2 14.8 0.00 0.00 0.00 44 1010.0
20260504140550 56 280 5.2 14.8 0.00 0.00 0.00 46 1009.9
20260504130551 52 234 4.3 11.3 0.00 0.00 0.00 52 1010.5
20260504110550 36 0 0.0 0.9 0.00 0.00 0.00 54 1010.9
20260504100550 35 0 0.0 1.7 0.00 0.00 0.00 65 1010.4
20260504100104 35 0 0.0 1.7 0.00 0.00 0.00 65 1010.4
20260504081604 38 0 0.0 0.0 0.00 0.00 0.00 72 1010.2
20260504081051 38 0 0.0 0.0 0.00 0.00 0.00 72 1010.2
20260504080549 39 0 0.0 0.0 0.00 0.00 0.00 72 1010.2
20260504080113 39 0 0.0 0.0 0.00 0.00 0.00 72 1010.2
20260504050551 41 0 0.0 1.7 0.00 0.00 0.00 69 1010.7
20260504045550 41 0 0.0 0.0 0.00 0.00 0.00 70 1010.7
20260504045050 41 0 0.0 1.7 0.00 0.00 0.00 70 1010.7
20260504044551 41 0 0.0 2.6 0.00 0.00 0.00 69 1010.7
20260504044050 41 305 0.9 2.6 0.00 0.00 0.00 69 1010.8
20260504043550 41 0 0.0 1.7 0.00 0.00 0.00 69 1010.7
20260504043108 41 0 0.0 1.7 0.00 0.00 0.00 69 1010.7
20260504042550 41 304 0.9 2.6 0.00 0.00 0.00 69 1010.7
20260504042050 41 304 0.0 2.6 0.00 0.00 0.00 68 1010.8
20260504041550 41 0 0.9 2.6 0.00 0.00 0.00 68 1010.8
20260504041050 41 304 0.0 2.6 0.00 0.00 0.00 67 1010.7
20260504040550 41 302 0.0 4.3 0.00 0.00 0.00 67 1010.6
20260504040112 41 304 0.9 4.3 0.00 0.00 0.00 66 1010.6
20260504035551 41 298 0.0 3.5 0.00 0.00 0.00 66 1010.5
20260504035050 41 298 0.9 3.5 0.00 0.00 0.00 66 1010.5
20260504034556 41 0 0.9 2.6 0.00 0.00 0.00 65 1010.6
20260504034050 42 0 0.0 3.5 0.00 0.00 0.00 65 1010.5
20260504033550 42 309 0.9 3.5 0.00 0.00 0.00 63 1010.4
20260504033053 42 284 1.7 3.5 0.00 0.00 0.00 62 1010.6
20260504032550 42 287 0.9 3.5 0.00 0.00 0.00 61 1010.4
20260504032050 42 298 0.0 3.5 0.00 0.00 0.00 61 1010.4
20260504031556 43 287 0.9 3.5 0.00 0.00 0.00 60 1010.3
20260504031050 43 0 0.9 5.2 0.00 0.00 0.00 59 1010.3
20260504030550 43 282 1.7 5.2 0.00 0.00 0.00 59 1010.3
20260504030055 43 254 0.9 2.6 0.00 0.00 0.00 58 1010.1
20260504025550 43 0 0.0 1.7 0.00 0.00 0.00 58 1010.0
20260504025050 43 0 0.0 0.9 0.00 0.00 0.00 57 1010.2
20260504024553 44 0 0.0 1.7 0.00 0.00 0.00 56 1010.2
20260504024049 44 0 0.0 1.7 0.00 0.00 0.00 56 1010.3
20260504023550 44 0 0.0 1.7 0.00 0.00 0.00 55 1010.3
20260504023101 44 0 0.0 2.6 0.00 0.00 0.00 54 1010.2
20260504022553 45 254 0.9 2.6 0.00 0.00 0.00 54 1010.3
20260504022049 45 275 0.9 5.2 0.00 0.00 0.00 53 1010.3
20260504021557 45 269 0.9 5.2 0.00 0.00 0.00 53 1010.4
20260504021050 45 269 0.9 5.2 0.00 0.00 0.00 51 1010.4
20260504020552 45 246 0.9 3.5 0.00 0.00 0.00 51 1010.3
20260504020055 46 284 0.9 7.8 0.00 0.00 0.00 50 1010.4
20260504015550 46 260 1.7 7.8 0.00 0.00 0.00 50 1010.4
20260504015050 46 273 1.7 8.7 0.00 0.00 0.00 49 1010.2
20260504014605 46 268 1.7 8.7 0.00 0.00 0.00 48 1010.2
20260504014050 46 271 2.6 7.0 0.00 0.00 0.00 48 1010.1
20260504013551 46 273 2.6 8.7 0.00 0.00 0.00 48 1010.1
20260504013100 46 282 2.6 8.7 0.00 0.00 0.00 47 1010.0
20260504012551 46 265 2.6 7.0 0.00 0.00 0.00 47 1010.0
20260504012051 47 281 0.9 7.0 0.00 0.00 0.00 48 1009.9
20260504011550 47 260 2.6 10.4 0.00 0.00 0.00 46 1009.8
20260504011049 47 297 3.5 10.4 0.00 0.00 0.00 46 1009.8
20260504010550 47 260 3.5 9.6 0.00 0.00 0.00 45 1009.8
20260504010055 47 273 4.3 11.3 0.00 0.00 0.00 45 1009.7
20260504005553 47 293 4.3 11.3 0.00 0.00 0.00 45 1009.7
20260504005053 47 290 3.5 8.7 0.00 0.00 0.00 44 1009.6
20260504004555 47 290 1.7 9.6 0.00 0.00 0.00 43 1009.6
20260504004050 47 278 3.5 10.4 0.00 0.00 0.00 42 1009.5
20260504003549 47 288 3.5 11.3 0.00 0.00 0.00 41 1009.5
20260504003101 47 270 4.3 11.3 0.00 0.00 0.00 41 1009.4
20260504002551 47 285 4.3 11.3 0.00 0.00 0.00 40 1009.3
20260504002050 47 288 5.2 11.3 0.00 0.00 0.00 40 1009.3
20260504001607 47 294 4.3 10.4 0.00 0.00 0.00 39 1009.1
20260504001050 47 286 5.2 10.4 0.00 0.00 0.00 38 1009.0
20260504000549 47 197 3.5 9.6 0.00 0.00 0.00 38 1008.8
20260504000130 48 296 3.5 9.6 0.00 0.00 0.00 37 1008.7
20260503235550 48 267 4.3 11.3 0.00 0.00 0.00 37 1008.6
20260503235050 48 269 4.3 11.3 0.00 0.00 0.00 36 1008.7
20260503234557 48 291 5.2 11.3 0.00 0.00 0.00 36 1008.7
20260503234050 48 287 5.2 10.4 0.00 0.00 0.00 35 1008.5
20260503233550 48 287 3.5 9.6 0.00 0.00 0.00 35 1008.6
20260503233058 48 304 3.5 9.6 0.00 0.00 0.00 35 1008.5
20260503232550 49 251 4.3 9.6 0.00 0.00 0.00 34 1008.5
20260503232050 49 271 3.5 11.3 0.00 0.00 0.00 34 1008.6
20260503231549 49 264 2.6 11.3 0.00 0.00 0.00 34 1008.5
20260503231051 49 235 3.5 10.4 0.00 0.00 0.00 33 1008.6
20260503230551 49 246 3.5 11.3 0.00 0.00 0.00 32 1008.5
20260503225550 50 286 4.3 14.8 0.00 0.00 0.00 31 1008.4
20260503225050 50 273 6.1 14.8 0.00 0.00 0.00 30 1008.3
20260503224557 50 337 3.5 13.9 0.00 0.00 0.00 32 1008.3
20260503224051 50 281 2.6 13.0 0.00 0.00 0.00 31 1008.2
20260503223550 50 319 2.6 13.9 0.00 0.00 0.00 32 1008.2
20260503223054 50 300 3.5 13.9 0.00 0.00 0.00 32 1008.2
20260503222552 50 321 5.2 15.6 0.00 0.00 0.00 32 1008.2
20260503222050 50 28 5.2 24.3 0.00 0.00 0.00 32 1008.2
20260503221557 50 283 7.8 24.3 0.00 0.00 0.00 32 1008.2
20260503221050 50 271 8.7 17.4 0.00 0.00 0.00 33 1008.2
20260503220550 50 298 4.3 17.4 0.00 0.00 0.00 34 1008.3
20260503220052 50 253 7.8 17.4 0.00 0.00 0.00 33 1008.2
20260503215550 50 306 4.3 16.5 0.00 0.00 0.00 35 1008.1
20260503215050 50 360 4.3 16.5 0.00 0.00 0.00 37 1008.0
20260503214553 50 300 1.7 12.2 0.00 0.00 0.00 39 1008.1
20260503214049 49 28 1.7 12.2 0.00 0.00 0.00 39 1008.2
20260503213549 50 282 3.5 12.2 0.00 0.00 0.00 39 1008.2
20260503213054 50 5 4.3 16.5 0.00 0.00 0.00 38 1008.2
20260503212549 50 232 4.3 16.5 0.00 0.00 0.00 39 1008.2
20260503212049 50 280 7.0 15.6 0.00 0.00 0.00 37 1008.2
20260503211554 50 312 4.3 9.6 0.00 0.00 0.00 39 1008.1
20260503211049 50 275 2.6 10.4 0.00 0.00 0.00 40 1008.1
20260503210552 50 343 3.5 13.0 0.00 0.00 0.00 40 1008.2
20260503210054 49 17 5.2 13.0 0.00 0.00 0.00 42 1008.3
20260503205550 49 299 5.2 13.0 0.00 0.00 0.00 41 1008.2
20260503205050 48 337 4.3 11.3 0.00 0.00 0.00 43 1008.2
20260503204557 47 342 2.6 15.6 0.00 0.00 0.00 42 1008.3
20260503204049 47 310 6.1 15.6 0.00 0.00 0.00 42 1008.2
20260503203550 48 288 4.3 15.6 0.00 0.00 0.00 42 1008.3
20260503203050 48 246 5.2 15.6 0.00 0.00 0.00 43 1008.3
20260503202550 48 284 7.0 15.6 0.00 0.00 0.00 43 1008.3
20260503202050 48 244 4.3 15.6 0.00 0.00 0.00 43 1008.4
20260503201550 48 284 2.6 13.9 0.00 0.00 0.00 44 1008.4
20260503201049 48 339 5.2 12.2 0.00 0.00 0.00 46 1008.5
20260503200549 47 328 4.3 12.2 0.00 0.00 0.00 46 1008.5
20260503200105 47 276 3.5 13.0 0.00 0.00 0.00 47 1008.7
20260503195550 47 294 6.1 20.0 0.00 0.00 0.00 45 1008.5
20260503195049 47 255 4.3 20.0 0.00 0.00 0.00 46 1008.6
20260503194559 47 332 7.0 17.4 0.00 0.00 0.00 46 1008.8
20260503194050 46 138 6.1 17.4 0.00 0.00 0.00 46 1008.8
20260503193550 46 46 7.0 17.4 0.00 0.00 0.00 45 1008.8
20260503193112 46 275 4.3 12.2 0.00 0.00 0.00 46 1008.7
20260503192551 46 329 4.3 19.1 0.00 0.00 0.00 46 1008.7
20260503192050 46 302 2.6 19.1 0.00 0.00 0.00 47 1008.7
20260503191607 46 270 7.0 16.5 0.00 0.00 0.00 45 1008.7
20260503191051 46 275 7.0 13.9 0.00 0.00 0.00 46 1008.7
20260503190551 46 273 5.2 20.0 0.00 0.00 0.00 47 1008.7
20260503190107 46 350 7.0 20.0 0.00 0.00 0.00 46 1008.7
20260503185549 46 276 6.1 16.5 0.00 0.00 0.00 48 1008.7
20260503185049 46 323 5.2 16.5 0.00 0.00 0.00 47 1008.7
20260503184606 46 260 6.1 16.5 0.00 0.00 0.00 47 1008.7
20260503184052 46 265 5.2 14.8 0.00 0.00 0.00 46 1008.9
20260503183550 46 29 2.6 13.9 0.00 0.00 0.00 47 1008.8
20260503183112 45 348 3.5 13.9 0.00 0.00 0.00 48 1008.8
20260503182550 45 232 5.2 13.9 0.00 0.00 0.00 48 1008.8
20260503182050 46 274 2.6 12.2 0.00 0.00 0.00 49 1008.9
20260503181620 46 316 6.1 13.0 0.00 0.00 0.00 48 1008.8
20260503181050 45 276 2.6 17.4 0.00 0.00 0.00 49 1008.7
20260503180550 45 289 4.3 17.4 0.00 0.00 0.00 49 1008.9
20260503180059 45 5 2.6 17.4 0.00 0.00 0.00 48 1008.8
20260503175550 45 36 1.7 17.4 0.00 0.00 0.00 48 1008.8
20260503175050 45 253 4.3 17.4 0.00 0.00 0.00 48 1008.8
20260503174556 45 265 5.2 13.0 0.00 0.00 0.00 48 1008.7
20260503174050 45 307 2.6 10.4 0.00 0.00 0.00 50 1008.8
20260503173550 45 331 3.5 10.4 0.00 0.00 0.00 50 1008.9
20260503173058 45 259 3.5 10.4 0.00 0.00 0.00 49 1008.8
20260503172553 45 339 2.6 10.4 0.00 0.00 0.00 50 1008.8
20260503172049 45 240 3.5 10.4 0.00 0.00 0.00 50 1008.7
20260503171601 45 286 2.6 10.4 0.00 0.00 0.00 49 1008.7
20260503171051 44 335 2.6 8.7 0.00 0.00 0.00 50 1008.7
20260503170550 44 286 1.7 9.6 0.00 0.00 0.00 50 1008.9
20260503150550 43 334 3.5 8.7 0.00 0.00 0.00 59 1009.2
20260503150106 43 330 3.5 8.7 0.00 0.00 0.00 61 1009.3